Track STARLINK-2481 now! 10-day predictions STARLINK-2481 is classified as:
1 48138U 21027AY 22186.85414052 -.00000315 00000-0 -22364-5 0 9997 2 48138 53.0559 79.8586 0001547 64.0692 296.0456 15.06396184 70024